Datum;"Wasserstand in cm";"Stationsnummer: 6602200";"Stationsname: Klein Bademeusel";"Gew?sser: Lausitzer Nei�e";"Fehlwerte: -777"
"31.03.2024 00:00";74
"31.03.2024 00:15";74
"31.03.2024 00:30";74
"31.03.2024 00:45";74
"31.03.2024 01:00";74
"31.03.2024 01:15";74
"31.03.2024 01:30";74
"31.03.2024 01:45";74
"31.03.2024 02:00";73
"31.03.2024 02:15";73
"31.03.2024 02:30";73
"31.03.2024 02:45";73
"31.03.2024 03:00";73
"31.03.2024 03:15";73
"31.03.2024 03:30";73
"31.03.2024 03:45";73
"31.03.2024 04:00";73
"31.03.2024 04:15";73
"31.03.2024 04:30";73
"31.03.2024 04:45";73
"31.03.2024 05:00";73
"31.03.2024 05:15";73
"31.03.2024 05:30";73
"31.03.2024 05:45";73
"31.03.2024 06:00";73
"31.03.2024 06:15";73
"31.03.2024 06:30";73
"31.03.2024 06:45";73
"31.03.2024 07:00";73
"31.03.2024 07:15";73
"31.03.2024 07:30";73
"31.03.2024 07:45";73
"31.03.2024 08:00";73
"31.03.2024 08:15";73
"31.03.2024 08:30";73
"31.03.2024 08:45";73
"31.03.2024 09:00";73
"31.03.2024 09:15";73
"31.03.2024 09:30";73
"31.03.2024 09:45";73
"31.03.2024 10:00";73
"31.03.2024 10:15";72
"31.03.2024 10:30";72
"31.03.2024 10:45";72
"31.03.2024 11:00";72
"31.03.2024 11:15";72
"31.03.2024 11:30";72
"31.03.2024 11:45";72
"31.03.2024 12:00";72
"31.03.2024 12:15";72
"31.03.2024 12:30";72
"31.03.2024 12:45";73
"31.03.2024 13:00";72
"31.03.2024 13:15";73
"31.03.2024 13:30";72
"31.03.2024 13:45";72
"31.03.2024 14:00";72
"31.03.2024 14:15";72
"31.03.2024 14:30";72
"31.03.2024 14:45";72
"31.03.2024 15:00";72
"31.03.2024 15:15";72
"31.03.2024 15:30";72
"31.03.2024 15:45";72
"31.03.2024 16:00";72
"31.03.2024 16:15";72
"31.03.2024 16:30";72
"31.03.2024 16:45";72
"31.03.2024 17:00";72
"31.03.2024 17:15";72
"31.03.2024 17:30";72
"31.03.2024 17:45";72
"31.03.2024 18:00";72
"31.03.2024 18:15";72
"31.03.2024 18:30";72
"31.03.2024 18:45";72
"31.03.2024 19:00";72
"31.03.2024 19:15";72
"31.03.2024 19:30";72
"31.03.2024 19:45";72
"31.03.2024 20:00";72
"31.03.2024 20:15";72
"31.03.2024 20:30";72
"31.03.2024 20:45";72
"31.03.2024 21:00";72
"31.03.2024 21:15";72
"31.03.2024 21:30";72
"31.03.2024 21:45";72
"31.03.2024 22:00";72
"31.03.2024 22:15";72
"31.03.2024 22:30";72
"31.03.2024 22:45";72
"31.03.2024 23:00";72
"31.03.2024 23:15";72
"31.03.2024 23:30";72
"31.03.2024 23:45";72
"01.04.2024 00:00";72
"01.04.2024 00:15";72
"01.04.2024 00:30";72
"01.04.2024 00:45";72
"01.04.2024 01:00";72
"01.04.2024 01:15";72
"01.04.2024 01:30";72
"01.04.2024 01:45";72
"01.04.2024 02:00";72
"01.04.2024 02:15";72
"01.04.2024 02:30";72
"01.04.2024 02:45";72
"01.04.2024 03:00";71
"01.04.2024 03:15";72
"01.04.2024 03:30";71
"01.04.2024 03:45";71
"01.04.2024 04:00";71
"01.04.2024 04:15";71
"01.04.2024 04:30";71
"01.04.2024 04:45";71
"01.04.2024 05:00";71
"01.04.2024 05:15";71
"01.04.2024 05:30";71
"01.04.2024 05:45";71
"01.04.2024 06:00";71
"01.04.2024 06:15";71
"01.04.2024 06:30";71
"01.04.2024 06:45";71
"01.04.2024 07:00";71
"01.04.2024 07:15";71
"01.04.2024 07:30";71
"01.04.2024 07:45";71
"01.04.2024 08:00";71
"01.04.2024 08:15";71
"01.04.2024 08:30";71
"01.04.2024 08:45";71
"01.04.2024 09:00";71
"01.04.2024 09:15";71
"01.04.2024 09:30";71
"01.04.2024 09:45";71
"01.04.2024 10:00";71
"01.04.2024 10:15";71
"01.04.2024 10:30";71
"01.04.2024 10:45";71
"01.04.2024 11:00";70
"01.04.2024 11:15";70
"01.04.2024 11:30";70
"01.04.2024 11:45";69
"01.04.2024 12:00";69
"01.04.2024 12:15";69
"01.04.2024 12:30";69
"01.04.2024 12:45";69
"01.04.2024 13:00";69
"01.04.2024 13:15";69
"01.04.2024 13:30";69
"01.04.2024 13:45";69
"01.04.2024 14:00";70
"01.04.2024 14:15";70
"01.04.2024 14:30";70
"01.04.2024 14:45";70
"01.04.2024 15:00";70
"01.04.2024 15:15";70
"01.04.2024 15:30";70
"01.04.2024 15:45";70
"01.04.2024 16:00";70
"01.04.2024 16:15";70
"01.04.2024 16:30";70
"01.04.2024 16:45";70
"01.04.2024 17:00";70
"01.04.2024 17:15";70
"01.04.2024 17:30";70
"01.04.2024 17:45";70
"01.04.2024 18:00";70
"01.04.2024 18:15";70
"01.04.2024 18:30";70
"01.04.2024 18:45";70
"01.04.2024 19:00";70
"01.04.2024 19:15";70
"01.04.2024 19:30";70
"01.04.2024 19:45";70
"01.04.2024 20:00";71
"01.04.2024 20:15";70
"01.04.2024 20:30";71
"01.04.2024 20:45";71
"01.04.2024 21:00";71
"01.04.2024 21:15";71
"01.04.2024 21:30";71
"01.04.2024 21:45";71
"01.04.2024 22:00";71
"01.04.2024 22:15";71
"01.04.2024 22:30";71
"01.04.2024 22:45";71
"01.04.2024 23:00";71
"01.04.2024 23:15";71
"01.04.2024 23:30";71
"01.04.2024 23:45";71
"02.04.2024 00:00";71
"02.04.2024 00:15";71
"02.04.2024 00:30";71
"02.04.2024 00:45";71
"02.04.2024 01:00";71
"02.04.2024 01:15";71
"02.04.2024 01:30";71
"02.04.2024 01:45";71
"02.04.2024 02:00";71
"02.04.2024 02:15";71
"02.04.2024 02:30";71
"02.04.2024 02:45";71
"02.04.2024 03:00";71
"02.04.2024 03:15";71
"02.04.2024 03:30";71
"02.04.2024 03:45";71
"02.04.2024 04:00";71
"02.04.2024 04:15";71
"02.04.2024 04:30";71
"02.04.2024 04:45";71
"02.04.2024 05:00";71
"02.04.2024 05:15";71
"02.04.2024 05:30";71
"02.04.2024 05:45";71
"02.04.2024 06:00";71
"02.04.2024 06:15";70
"02.04.2024 06:30";70
"02.04.2024 06:45";70
"02.04.2024 07:00";70
"02.04.2024 07:15";70
"02.04.2024 07:30";70
"02.04.2024 07:45";71
"02.04.2024 08:00";69
"02.04.2024 08:15";69
"02.04.2024 08:30";69
"02.04.2024 08:45";69
"02.04.2024 09:00";69
"02.04.2024 09:15";69
"02.04.2024 09:30";69
"02.04.2024 09:45";69
"02.04.2024 10:00";69
"02.04.2024 10:15";69
"02.04.2024 10:30";69
"02.04.2024 10:45";69
"02.04.2024 11:00";69
"02.04.2024 11:15";69
"02.04.2024 11:30";69
"02.04.2024 11:45";69
"02.04.2024 12:00";69
"02.04.2024 12:15";69
"02.04.2024 12:30";69
"02.04.2024 12:45";69
"02.04.2024 13:00";69
"02.04.2024 13:15";69
"02.04.2024 13:30";69
"02.04.2024 13:45";69
"02.04.2024 14:00";69
"02.04.2024 14:15";69
"02.04.2024 14:30";69
"02.04.2024 14:45";69
"02.04.2024 15:00";69
"02.04.2024 15:15";69
"02.04.2024 15:30";69
"02.04.2024 15:45";69
"02.04.2024 16:00";69
"02.04.2024 16:15";69
"02.04.2024 16:30";69
"02.04.2024 16:45";69
"02.04.2024 17:00";69
"02.04.2024 17:15";69
"02.04.2024 17:30";69
"02.04.2024 17:45";69
"02.04.2024 18:00";69
"02.04.2024 18:15";69
"02.04.2024 18:30";69
"02.04.2024 18:45";69
"02.04.2024 19:00";69
"02.04.2024 19:15";69
"02.04.2024 19:30";69
"02.04.2024 19:45";69
"02.04.2024 20:00";69
"02.04.2024 20:15";69
"02.04.2024 20:30";69
"02.04.2024 20:45";69
"02.04.2024 21:00";69
"02.04.2024 21:15";69
"02.04.2024 21:30";69
"02.04.2024 21:45";69
"02.04.2024 22:00";69
"02.04.2024 22:15";69
"02.04.2024 22:30";69
"02.04.2024 22:45";69
"02.04.2024 23:00";69
"02.04.2024 23:15";69
"02.04.2024 23:30";69
"02.04.2024 23:45";69
"03.04.2024 00:00";69
"03.04.2024 00:15";69
"03.04.2024 00:30";69
"03.04.2024 00:45";69
"03.04.2024 01:00";69
"03.04.2024 01:15";69
"03.04.2024 01:30";69
"03.04.2024 01:45";69
"03.04.2024 02:00";69
"03.04.2024 02:15";69
"03.04.2024 02:30";69
"03.04.2024 02:45";69
"03.04.2024 03:00";69
"03.04.2024 03:15";69
"03.04.2024 03:30";69
"03.04.2024 03:45";69
"03.04.2024 04:00";69
"03.04.2024 04:15";69
"03.04.2024 04:30";69
"03.04.2024 04:45";69
"03.04.2024 05:00";69
"03.04.2024 05:15";69
"03.04.2024 05:30";70
"03.04.2024 05:45";70
"03.04.2024 06:00";70
"03.04.2024 06:15";70
"03.04.2024 06:30";70
"03.04.2024 06:45";70
"03.04.2024 07:00";70
"03.04.2024 07:15";70
"03.04.2024 07:30";70
"03.04.2024 07:45";70
"03.04.2024 08:00";70
"03.04.2024 08:15";70
"03.04.2024 08:30";70
"03.04.2024 08:45";70
"03.04.2024 09:00";70
"03.04.2024 09:15";70
"03.04.2024 09:30";70
"03.04.2024 09:45";70
"03.04.2024 10:00";70
"03.04.2024 10:15";70
"03.04.2024 10:30";70
"03.04.2024 10:45";70
"03.04.2024 11:00";69
"03.04.2024 11:15";69
"03.04.2024 11:30";69
"03.04.2024 11:45";69
"03.04.2024 12:00";69
"03.04.2024 12:15";69
"03.04.2024 12:30";69
"03.04.2024 12:45";68
"03.04.2024 13:00";68
"03.04.2024 13:15";68
"03.04.2024 13:30";68
"03.04.2024 13:45";68
"03.04.2024 14:00";68
"03.04.2024 14:15";68
"03.04.2024 14:30";67
"03.04.2024 14:45";67
"03.04.2024 15:00";67
"03.04.2024 15:15";67
"03.04.2024 15:30";67
"03.04.2024 15:45";67
"03.04.2024 16:00";66
"03.04.2024 16:15";66
"03.04.2024 16:30";66
"03.04.2024 16:45";66
"03.04.2024 17:00";66
"03.04.2024 17:15";66
"03.04.2024 17:30";67
"03.04.2024 17:45";67
"03.04.2024 18:00";67
"03.04.2024 18:15";67
"03.04.2024 18:30";67
"03.04.2024 18:45";68
"03.04.2024 19:00";68
"03.04.2024 19:15";68
"03.04.2024 19:30";68
"03.04.2024 19:45";68
"03.04.2024 20:00";68
"03.04.2024 20:15";68
"03.04.2024 20:30";67
"03.04.2024 20:45";67
"03.04.2024 21:00";67
"03.04.2024 21:15";67
"03.04.2024 21:30";67
"03.04.2024 21:45";67
"03.04.2024 22:00";67
"03.04.2024 22:15";67
"03.04.2024 22:30";67
"03.04.2024 22:45";67
"03.04.2024 23:00";67
"03.04.2024 23:15";67
"03.04.2024 23:30";67
"03.04.2024 23:45";67
"04.04.2024 00:00";67
"04.04.2024 00:15";67
"04.04.2024 00:30";67
"04.04.2024 00:45";67
"04.04.2024 01:00";67
"04.04.2024 01:15";67
"04.04.2024 01:30";67
"04.04.2024 01:45";67
"04.04.2024 02:00";67
"04.04.2024 02:15";67
"04.04.2024 02:30";67
"04.04.2024 02:45";67
"04.04.2024 03:00";67
"04.04.2024 03:15";67
"04.04.2024 03:30";67
"04.04.2024 03:45";67
"04.04.2024 04:00";68
"04.04.2024 04:15";68
"04.04.2024 04:30";68
"04.04.2024 04:45";68
"04.04.2024 05:00";68
"04.04.2024 05:15";68
"04.04.2024 05:30";68
"04.04.2024 05:45";68
"04.04.2024 06:00";68
"04.04.2024 06:15";68
"04.04.2024 06:30";68
"04.04.2024 06:45";68
"04.04.2024 07:00";68
"04.04.2024 07:15";68
"04.04.2024 07:30";68
"04.04.2024 07:45";68
"04.04.2024 08:00";68
"04.04.2024 08:15";68
"04.04.2024 08:30";68
"04.04.2024 08:45";68
"04.04.2024 09:00";69
"04.04.2024 09:15";69
"04.04.2024 09:30";69
"04.04.2024 09:45";69
"04.04.2024 10:00";68
"04.04.2024 10:15";68
"04.04.2024 10:30";68
"04.04.2024 10:45";68
"04.04.2024 11:00";68
"04.04.2024 11:15";69
"04.04.2024 11:30";68
"04.04.2024 11:45";68
"04.04.2024 12:00";68
"04.04.2024 12:15";68
"04.04.2024 12:30";68
"04.04.2024 12:45";68
"04.04.2024 13:00";68
"04.04.2024 13:15";68
"04.04.2024 13:30";68
"04.04.2024 13:45";68
"04.04.2024 14:00";68
"04.04.2024 14:15";68
"04.04.2024 14:30";68
"04.04.2024 14:45";68
"04.04.2024 15:00";68
"04.04.2024 15:15";68
"04.04.2024 15:30";68
"04.04.2024 15:45";68
"04.04.2024 16:00";68
"04.04.2024 16:15";68
"04.04.2024 16:30";68
"04.04.2024 16:45";68
"04.04.2024 17:00";68
"04.04.2024 17:15";68
"04.04.2024 17:30";68
"04.04.2024 17:45";68
"04.04.2024 18:00";68
"04.04.2024 18:15";68
"04.04.2024 18:30";68
"04.04.2024 18:45";68
"04.04.2024 19:00";68
"04.04.2024 19:15";68
"04.04.2024 19:30";68
"04.04.2024 19:45";68
"04.04.2024 20:00";68
"04.04.2024 20:15";68
"04.04.2024 20:30";68
"04.04.2024 20:45";68
"04.04.2024 21:00";68
"04.04.2024 21:15";68
"04.04.2024 21:30";68
"04.04.2024 21:45";68
"04.04.2024 22:00";68
"04.04.2024 22:15";68
"04.04.2024 22:30";68
"04.04.2024 22:45";68
"04.04.2024 23:00";68
"04.04.2024 23:15";68
"04.04.2024 23:30";68
"04.04.2024 23:45";68
"05.04.2024 00:00";67
"05.04.2024 00:15";67
"05.04.2024 00:30";67
"05.04.2024 00:45";67
"05.04.2024 01:00";67
"05.04.2024 01:15";67
"05.04.2024 01:30";67
"05.04.2024 01:45";67
"05.04.2024 02:00";67
"05.04.2024 02:15";67
"05.04.2024 02:30";68
"05.04.2024 02:45";68
"05.04.2024 03:00";68
"05.04.2024 03:15";68
"05.04.2024 03:30";68
"05.04.2024 03:45";68
"05.04.2024 04:00";68
"05.04.2024 04:15";68
"05.04.2024 04:30";68
"05.04.2024 04:45";68
"05.04.2024 05:00";68
"05.04.2024 05:15";69
"05.04.2024 05:30";69
"05.04.2024 05:45";69
"05.04.2024 06:00";68
"05.04.2024 06:15";68
"05.04.2024 06:30";68
"05.04.2024 06:45";68
"05.04.2024 07:00";68
"05.04.2024 07:15";68
"05.04.2024 07:30";68
"05.04.2024 07:45";68
"05.04.2024 08:00";68
"05.04.2024 08:15";68
"05.04.2024 08:30";68
"05.04.2024 08:45";68
"05.04.2024 09:00";68
"05.04.2024 09:15";68
"05.04.2024 09:30";68
"05.04.2024 09:45";68
"05.04.2024 10:00";68
"05.04.2024 10:15";68
"05.04.2024 10:30";68
"05.04.2024 10:45";68
"05.04.2024 11:00";68
"05.04.2024 11:15";68
"05.04.2024 11:30";68
"05.04.2024 11:45";68
"05.04.2024 12:00";68
"05.04.2024 12:15";68
"05.04.2024 12:30";68
"05.04.2024 12:45";68
"05.04.2024 13:00";68
"05.04.2024 13:15";68
"05.04.2024 13:30";68
"05.04.2024 13:45";68
"05.04.2024 14:00";67
"05.04.2024 14:15";67
"05.04.2024 14:30";67
"05.04.2024 14:45";67
"05.04.2024 15:00";67
"05.04.2024 15:15";67
"05.04.2024 15:30";67
"05.04.2024 15:45";68
"05.04.2024 16:00";68
"05.04.2024 16:15";68
"05.04.2024 16:30";68
"05.04.2024 16:45";68
"05.04.2024 17:00";68
"05.04.2024 17:15";68
"05.04.2024 17:30";68
"05.04.2024 17:45";68
"05.04.2024 18:00";68
"05.04.2024 18:15";68
"05.04.2024 18:30";68
"05.04.2024 18:45";68
"05.04.2024 19:00";68
"05.04.2024 19:15";68
"05.04.2024 19:30";68
"05.04.2024 19:45";68
"05.04.2024 20:00";68
"05.04.2024 20:15";68
"05.04.2024 20:30";68
"05.04.2024 20:45";68
"05.04.2024 21:00";68
"05.04.2024 21:15";68
"05.04.2024 21:30";68
"05.04.2024 21:45";68
"05.04.2024 22:00";68
"05.04.2024 22:15";68
"05.04.2024 22:30";68
"05.04.2024 22:45";68
"05.04.2024 23:00";68
"05.04.2024 23:15";68
"05.04.2024 23:30";68
"05.04.2024 23:45";68
"06.04.2024 00:00";68
"06.04.2024 00:15";68
"06.04.2024 00:30";68
"06.04.2024 00:45";68
"06.04.2024 01:00";68
"06.04.2024 01:15";68
"06.04.2024 01:30";68
"06.04.2024 01:45";68
"06.04.2024 02:00";68
"06.04.2024 02:15";68
"06.04.2024 02:30";68
"06.04.2024 02:45";68
"06.04.2024 03:00";68
"06.04.2024 03:15";68
"06.04.2024 03:30";68
"06.04.2024 03:45";68
"06.04.2024 04:00";68
"06.04.2024 04:15";68
"06.04.2024 04:30";68
"06.04.2024 04:45";68
"06.04.2024 05:00";68
"06.04.2024 05:15";68
"06.04.2024 05:30";68
"06.04.2024 05:45";68
"06.04.2024 06:00";68
"06.04.2024 06:15";68
"06.04.2024 06:30";68
"06.04.2024 06:45";68
"06.04.2024 07:00";68
"06.04.2024 07:15";68
"06.04.2024 07:30";68
"06.04.2024 07:45";68
"06.04.2024 08:00";68
"06.04.2024 08:15";68
"06.04.2024 08:30";68
"06.04.2024 08:45";68
"06.04.2024 09:00";68
"06.04.2024 09:15";68
"06.04.2024 09:30";68
"06.04.2024 09:45";68
"06.04.2024 10:00";68
"06.04.2024 10:15";68
"06.04.2024 10:30";68
"06.04.2024 10:45";68
"06.04.2024 11:00";68
"06.04.2024 11:15";68
"06.04.2024 11:30";68
"06.04.2024 11:45";68
"06.04.2024 12:00";68
"06.04.2024 12:15";68
"06.04.2024 12:30";68
"06.04.2024 12:45";68
"06.04.2024 13:00";68
"06.04.2024 13:15";68
"06.04.2024 13:30";68
"06.04.2024 13:45";68
"06.04.2024 14:00";68
"06.04.2024 14:15";68
"06.04.2024 14:30";68
"06.04.2024 14:45";68
"06.04.2024 15:00";68
"06.04.2024 15:15";68
"06.04.2024 15:30";68
"06.04.2024 15:45";68
"06.04.2024 16:00";67
"06.04.2024 16:15";67
"06.04.2024 16:30";66
"06.04.2024 16:45";66
"06.04.2024 17:00";68
"06.04.2024 17:15";69
"06.04.2024 17:30";70
"06.04.2024 17:45";70
"06.04.2024 18:00";70
"06.04.2024 18:15";70
"06.04.2024 18:30";69
"06.04.2024 18:45";69
"06.04.2024 19:00";69
"06.04.2024 19:15";69
"06.04.2024 19:30";69
"06.04.2024 19:45";69
"06.04.2024 20:00";69
"06.04.2024 20:15";69
"06.04.2024 20:30";69
"06.04.2024 20:45";69
"06.04.2024 21:00";69
"06.04.2024 21:15";69
"06.04.2024 21:30";69
"06.04.2024 21:45";68
"06.04.2024 22:00";68
"06.04.2024 22:15";68
"06.04.2024 22:30";68
"06.04.2024 22:45";68
"06.04.2024 23:00";68
"06.04.2024 23:15";68
"06.04.2024 23:30";68
"06.04.2024 23:45";68
"07.04.2024 00:00";68
"07.04.2024 00:15";68
"07.04.2024 00:30";68
"07.04.2024 00:45";69
"07.04.2024 01:00";68
"07.04.2024 01:15";68
"07.04.2024 01:30";68
"07.04.2024 01:45";68
"07.04.2024 02:00";68
"07.04.2024 02:15";68
"07.04.2024 02:30";69
"07.04.2024 02:45";69
"07.04.2024 03:00";69
"07.04.2024 03:15";69
"07.04.2024 03:30";69
"07.04.2024 03:45";69
"07.04.2024 04:00";69
"07.04.2024 04:15";69
"07.04.2024 04:30";69
"07.04.2024 04:45";69
"07.04.2024 05:00";69
"07.04.2024 05:15";69
"07.04.2024 05:30";68
"07.04.2024 05:45";68
"07.04.2024 06:00";68
"07.04.2024 06:15";69
"07.04.2024 06:30";69
"07.04.2024 06:45";69
"07.04.2024 07:00";69
"07.04.2024 07:15";69
"07.04.2024 07:30";69
"07.04.2024 07:45";69
"07.04.2024 08:00";69
"07.04.2024 08:15";69
"07.04.2024 08:30";68
"07.04.2024 08:45";68
"07.04.2024 09:00";68
"07.04.2024 09:15";68
"07.04.2024 09:30";68
"07.04.2024 09:45";68
"07.04.2024 10:00";68
"07.04.2024 10:15";68
"07.04.2024 10:30";68
"07.04.2024 10:45";68
"07.04.2024 11:00";68
"07.04.2024 11:15";68
"07.04.2024 11:30";68
"07.04.2024 11:45";68
"07.04.2024 12:00";68
"07.04.2024 12:15";68
"07.04.2024 12:30";68
"07.04.2024 12:45";68
"07.04.2024 13:00";67
"07.04.2024 13:15";67
"07.04.2024 13:30";67
"07.04.2024 13:45";67
"07.04.2024 14:00";67
"07.04.2024 14:15";67
"07.04.2024 14:30";67
"07.04.2024 14:45";67
"07.04.2024 15:00";67
"07.04.2024 15:15";67
"07.04.2024 15:30";67
"07.04.2024 15:45";67
"07.04.2024 16:00";67
"07.04.2024 16:15";67
"07.04.2024 16:30";67
"07.04.2024 16:45";67
"07.04.2024 17:00";67
"07.04.2024 17:15";67
"07.04.2024 17:30";67
"07.04.2024 17:45";67
"07.04.2024 18:00";67
"07.04.2024 18:15";67
"07.04.2024 18:30";67
"07.04.2024 18:45";67
"07.04.2024 19:00";67
"07.04.2024 19:15";67
"07.04.2024 19:30";67
"07.04.2024 19:45";67
"07.04.2024 20:00";67
"07.04.2024 20:15";67
"07.04.2024 20:30";67
"07.04.2024 20:45";67
"07.04.2024 21:00";67
"07.04.2024 21:15";67
"07.04.2024 21:30";67
"07.04.2024 21:45";67
"07.04.2024 22:00";67
"07.04.2024 22:15";67
"07.04.2024 22:30";67
"07.04.2024 22:45";67
"07.04.2024 23:00";67
"07.04.2024 23:15";67
"07.04.2024 23:30";67
"07.04.2024 23:45";67
"08.04.2024 00:00";67
"08.04.2024 00:15";67
"08.04.2024 00:30";67
"08.04.2024 00:45";67
"08.04.2024 01:00";67
"08.04.2024 01:15";67
"08.04.2024 01:30";66
"08.04.2024 01:45";66
"08.04.2024 02:00";66
"08.04.2024 02:15";66
"08.04.2024 02:30";66
"08.04.2024 02:45";66
"08.04.2024 03:00";66
"08.04.2024 03:15";66
"08.04.2024 03:30";66
"08.04.2024 03:45";66
"08.04.2024 04:00";66
"08.04.2024 04:15";66
"08.04.2024 04:30";66
"08.04.2024 04:45";66
"08.04.2024 05:00";66
"08.04.2024 05:15";67
"08.04.2024 05:30";67
"08.04.2024 05:45";67
"08.04.2024 06:00";67
"08.04.2024 06:15";67
"08.04.2024 06:30";67
"08.04.2024 06:45";67
"08.04.2024 07:00";67
"08.04.2024 07:15";66
"08.04.2024 07:30";66
"08.04.2024 07:45";66
"08.04.2024 08:00";66
"08.04.2024 08:15";66
"08.04.2024 08:30";66
"08.04.2024 08:45";66
"08.04.2024 09:00";66
"08.04.2024 09:15";66
"08.04.2024 09:30";66
"08.04.2024 09:45";66
"08.04.2024 10:00";66
"08.04.2024 10:15";66
"08.04.2024 10:30";66
"08.04.2024 10:45";66
"08.04.2024 11:00";66
"08.04.2024 11:15";66
"08.04.2024 11:30";66
"08.04.2024 11:45";66
"08.04.2024 12:00";66
"08.04.2024 12:15";66
"08.04.2024 12:30";66
"08.04.2024 12:45";66
"08.04.2024 13:00";66
"08.04.2024 13:15";66
"08.04.2024 13:30";66
"08.04.2024 13:45";66
"08.04.2024 14:00";66
"08.04.2024 14:15";66
"08.04.2024 14:30";66
"08.04.2024 14:45";66
"08.04.2024 15:00";66
"08.04.2024 15:15";66
"08.04.2024 15:30";66
"08.04.2024 15:45";66
"08.04.2024 16:00";66
"08.04.2024 16:15";66
"08.04.2024 16:30";66
"08.04.2024 16:45";66
"08.04.2024 17:00";66
"08.04.2024 17:15";65
"08.04.2024 17:30";65
"08.04.2024 17:45";65
"08.04.2024 18:00";66
"08.04.2024 18:15";66
"08.04.2024 18:30";66
"08.04.2024 18:45";66
"08.04.2024 19:00";65
"08.04.2024 19:15";65
"08.04.2024 19:30";65
"08.04.2024 19:45";66
"08.04.2024 20:00";66
"08.04.2024 20:15";66
"08.04.2024 20:30";66
"08.04.2024 20:45";66
"08.04.2024 21:00";66
"08.04.2024 21:15";65
"08.04.2024 21:30";65
"08.04.2024 21:45";65
"08.04.2024 22:00";66
"08.04.2024 22:15";66
"08.04.2024 22:30";66
"08.04.2024 22:45";66
"08.04.2024 23:00";66
"08.04.2024 23:15";66
"08.04.2024 23:30";66
"08.04.2024 23:45";66
"09.04.2024 00:00";66
"09.04.2024 00:15";66
"09.04.2024 00:30";66
"09.04.2024 00:45";66
"09.04.2024 01:00";66
"09.04.2024 01:15";66
"09.04.2024 01:30";66
"09.04.2024 01:45";66
"09.04.2024 02:00";66
"09.04.2024 02:15";65
"09.04.2024 02:30";65
"09.04.2024 02:45";65
"09.04.2024 03:00";65
"09.04.2024 03:15";65
"09.04.2024 03:30";65
"09.04.2024 03:45";65
"09.04.2024 04:00";65
"09.04.2024 04:15";65
"09.04.2024 04:30";65
"09.04.2024 04:45";65
"09.04.2024 05:00";66
"09.04.2024 05:15";66
"09.04.2024 05:30";66
"09.04.2024 05:45";66
"09.04.2024 06:00";66
"09.04.2024 06:15";66
"09.04.2024 06:30";66
"09.04.2024 06:45";65
"09.04.2024 07:00";65
"09.04.2024 07:15";66
"09.04.2024 07:30";65
"09.04.2024 07:45";65
"09.04.2024 08:00";65
"09.04.2024 08:15";65
"09.04.2024 08:30";65
"09.04.2024 08:45";65
"09.04.2024 09:00";65
"09.04.2024 09:15";65
"09.04.2024 09:30";65
"09.04.2024 09:45";65
"09.04.2024 10:00";65
"09.04.2024 10:15";65
"09.04.2024 10:30";65
"09.04.2024 10:45";65
"09.04.2024 11:00";65
"09.04.2024 11:15";65
"09.04.2024 11:30";65
"09.04.2024 11:45";65
"09.04.2024 12:00";65
"09.04.2024 12:15";65
"09.04.2024 12:30";65
"09.04.2024 12:45";65
"09.04.2024 13:00";65
"09.04.2024 13:15";65
"09.04.2024 13:30";65
"09.04.2024 13:45";65
"09.04.2024 14:00";65
"09.04.2024 14:15";65
"09.04.2024 14:30";65
"09.04.2024 14:45";64
"09.04.2024 15:00";64
"09.04.2024 15:15";64
"09.04.2024 15:30";64
"09.04.2024 15:45";65
"09.04.2024 16:00";65
"09.04.2024 16:15";65
"09.04.2024 16:30";65
"09.04.2024 16:45";65
"09.04.2024 17:00";65
"09.04.2024 17:15";65
"09.04.2024 17:30";65
"09.04.2024 17:45";65
"09.04.2024 18:00";65
"09.04.2024 18:15";65
"09.04.2024 18:30";65
"09.04.2024 18:45";65
"09.04.2024 19:00";65
"09.04.2024 19:15";64
"09.04.2024 19:30";64
"09.04.2024 19:45";64
"09.04.2024 20:00";64
"09.04.2024 20:15";64
"09.04.2024 20:30";64
"09.04.2024 20:45";64
"09.04.2024 21:00";64
"09.04.2024 21:15";64
"09.04.2024 21:30";64
"09.04.2024 21:45";64
"09.04.2024 22:00";64
"09.04.2024 22:15";64
"09.04.2024 22:30";64
"09.04.2024 22:45";64
"09.04.2024 23:00";64
"09.04.2024 23:15";64
"09.04.2024 23:30";64
"09.04.2024 23:45";64
"10.04.2024 00:00";64
"10.04.2024 00:15";64
"10.04.2024 00:30";64
"10.04.2024 00:45";64
"10.04.2024 01:00";64
"10.04.2024 01:15";64
"10.04.2024 01:30";64
"10.04.2024 01:45";64
"10.04.2024 02:00";64
"10.04.2024 02:15";64
"10.04.2024 02:30";64
"10.04.2024 02:45";64
"10.04.2024 03:00";64
"10.04.2024 03:15";64
"10.04.2024 03:30";64
"10.04.2024 03:45";64
"10.04.2024 04:00";64
"10.04.2024 04:15";64
"10.04.2024 04:30";64
"10.04.2024 04:45";64
"10.04.2024 05:00";64
"10.04.2024 05:15";64
"10.04.2024 05:30";64
"10.04.2024 05:45";64
"10.04.2024 06:00";64
"10.04.2024 06:15";64
"10.04.2024 06:30";64
"10.04.2024 06:45";64
"10.04.2024 07:00";64
"10.04.2024 07:15";64
"10.04.2024 07:30";64
"10.04.2024 07:45";64
"10.04.2024 08:00";64
"10.04.2024 08:15";65
"10.04.2024 08:30";65
"10.04.2024 08:45";65
"10.04.2024 09:00";65
"10.04.2024 09:15";66
"10.04.2024 09:30";66
"10.04.2024 09:45";66
"10.04.2024 10:00";66
"10.04.2024 10:15";66
"10.04.2024 10:30";65
"10.04.2024 10:45";65
"10.04.2024 11:00";64
"10.04.2024 11:15";64
"10.04.2024 11:30";64
"10.04.2024 11:45";64
"10.04.2024 12:00";64
"10.04.2024 12:15";64
"10.04.2024 12:30";64
"10.04.2024 12:45";64
"10.04.2024 13:00";64
"10.04.2024 13:15";64
"10.04.2024 13:30";64
"10.04.2024 13:45";64
"10.04.2024 14:00";64
"10.04.2024 14:15";64
"10.04.2024 14:30";64
"10.04.2024 14:45";64
"10.04.2024 15:00";64
"10.04.2024 15:15";64
"10.04.2024 15:30";64
"10.04.2024 15:45";64
"10.04.2024 16:00";64
"10.04.2024 16:15";64
"10.04.2024 16:30";64
"10.04.2024 16:45";64
"10.04.2024 17:00";64
"10.04.2024 17:15";64
"10.04.2024 17:30";64
"10.04.2024 17:45";64
"10.04.2024 18:00";64
"10.04.2024 18:15";64
"10.04.2024 18:30";64
"10.04.2024 18:45";64
"10.04.2024 19:00";64
"10.04.2024 19:15";64
"10.04.2024 19:30";64
"10.04.2024 19:45";64
"10.04.2024 20:00";64
"10.04.2024 20:15";64
"10.04.2024 20:30";64
"10.04.2024 20:45";64
"10.04.2024 21:00";64
"10.04.2024 21:15";64
"10.04.2024 21:30";64
"10.04.2024 21:45";64
"10.04.2024 22:00";64
"10.04.2024 22:15";64
"10.04.2024 22:30";64
"10.04.2024 22:45";64
"10.04.2024 23:00";64
"10.04.2024 23:15";64
"10.04.2024 23:30";64
"10.04.2024 23:45";64
"11.04.2024 00:00";64
"11.04.2024 00:15";64
"11.04.2024 00:30";64
"11.04.2024 00:45";64
"11.04.2024 01:00";64
"11.04.2024 01:15";64
"11.04.2024 01:30";64
"11.04.2024 01:45";64
"11.04.2024 02:00";64
"11.04.2024 02:15";64
"11.04.2024 02:30";64
"11.04.2024 02:45";64
"11.04.2024 03:00";64
"11.04.2024 03:15";64
"11.04.2024 03:30";64
"11.04.2024 03:45";64
"11.04.2024 04:00";64
"11.04.2024 04:15";64
"11.04.2024 04:30";64
"11.04.2024 04:45";64
"11.04.2024 05:00";64
"11.04.2024 05:15";64
"11.04.2024 05:30";64
"11.04.2024 05:45";64
"11.04.2024 06:00";64
"11.04.2024 06:15";64
"11.04.2024 06:30";64
"11.04.2024 06:45";64